3 Gehege Außen am Haus Messungen

Zurück zum Überblick

Zeitpunkt Temperatur Luftfeuchte
23.01.2021 19:48:47 18,1 C 46,0%
23.01.2021 19:41:43 17,9 C 47,0%
23.01.2021 19:34:40 18,1 C 47,0%
23.01.2021 19:27:38 18,3 C 46,0%
23.01.2021 19:20:36 17,9 C 47,0%
23.01.2021 19:13:35 18,1 C 47,0%
23.01.2021 19:06:33 18,5 C 46,0%
23.01.2021 18:59:30 18,4 C 47,0%
23.01.2021 18:52:27 17,9 C 47,0%
23.01.2021 18:45:26 18,2 C 47,0%
23.01.2021 18:38:24 18,5 C 47,0%
23.01.2021 18:31:22 18,2 C 48,0%
23.01.2021 18:24:19 18,0 C 48,0%
23.01.2021 18:17:18 18,3 C 47,0%
23.01.2021 18:10:17 18,5 C 47,0%
23.01.2021 18:03:15 18,1 C 48,0%
23.01.2021 17:56:11 18,3 C 47,0%
23.01.2021 17:49:11 18,4 C 47,0%
23.01.2021 17:42:10 18,5 C 47,0%
23.01.2021 17:35:07 18,2 C 48,0%
23.01.2021 17:28:04 18,4 C 47,0%
23.01.2021 17:21:01 18,7 C 47,0%
23.01.2021 17:13:58 18,9 C 47,0%
23.01.2021 17:06:57 18,3 C 48,0%
23.01.2021 16:59:56 18,4 C 47,0%
23.01.2021 16:52:54 18,6 C 47,0%
23.01.2021 16:45:50 18,8 C 47,0%
23.01.2021 16:38:47 18,7 C 47,0%
23.01.2021 16:31:45 18,5 C 48,0%
23.01.2021 16:24:42 18,5 C 48,0%
23.01.2021 16:17:40 18,7 C 47,0%
23.01.2021 16:10:40 18,9 C 47,0%
23.01.2021 16:03:37 18,7 C 48,0%
23.01.2021 15:56:34 18,6 C 47,0%
23.01.2021 15:49:32 18,7 C 47,0%
23.01.2021 15:42:31 18,9 C 47,0%
23.01.2021 15:35:29 19,0 C 47,0%
23.01.2021 15:28:28 19,2 C 47,0%
23.01.2021 15:21:26 18,8 C 47,0%
23.01.2021 15:14:25 18,8 C 47,0%
23.01.2021 15:07:22 18,8 C 47,0%
23.01.2021 15:00:21 18,9 C 47,0%
23.01.2021 14:53:19 19,0 C 47,0%
23.01.2021 14:46:16 19,1 C 47,0%
23.01.2021 14:39:14 18,7 C 48,0%
23.01.2021 14:32:13 18,8 C 47,0%
23.01.2021 14:25:12 18,9 C 47,0%
23.01.2021 14:18:10 19,0 C 47,0%
23.01.2021 14:11:08 19,2 C 47,0%
23.01.2021 14:04:07 19,3 C 47,0%
23.01.2021 13:57:05 19,0 C 48,0%
23.01.2021 13:50:04 18,7 C 48,0%
23.01.2021 13:43:04 18,9 C 48,0%
23.01.2021 13:36:01 19,0 C 47,0%
23.01.2021 13:28:58 19,1 C 47,0%
23.01.2021 13:21:57 19,2 C 47,0%
23.01.2021 13:14:54 18,9 C 48,0%
23.01.2021 13:07:53 18,7 C 48,0%
23.01.2021 13:00:50 18,8 C 48,0%
23.01.2021 12:53:47 19,0 C 47,0%
23.01.2021 12:46:46 19,1 C 47,0%
23.01.2021 12:39:45 18,7 C 48,0%
23.01.2021 12:32:43 18,6 C 48,0%
23.01.2021 12:25:40 18,7 C 48,0%
23.01.2021 12:18:38 18,8 C 47,0%
23.01.2021 12:11:37 18,9 C 48,0%
23.01.2021 12:04:35 18,7 C 48,0%
23.01.2021 11:57:34 18,7 C 48,0%
23.01.2021 11:50:31 18,7 C 47,0%
23.01.2021 11:43:31 18,8 C 47,0%
23.01.2021 11:36:28 18,4 C 47,0%
23.01.2021 11:29:27 18,6 C 47,0%
23.01.2021 11:22:27 18,8 C 47,0%
23.01.2021 11:15:24 19,0 C 47,0%
23.01.2021 11:08:22 18,3 C 48,0%
23.01.2021 11:01:19 18,4 C 47,0%
23.01.2021 10:54:17 18,6 C 47,0%
23.01.2021 10:47:15 18,4 C 48,0%
23.01.2021 10:40:14 18,4 C 47,0%
23.01.2021 10:33:12 18,6 C 47,0%
23.01.2021 10:26:10 18,5 C 47,0%
23.01.2021 10:19:09 18,1 C 47,0%
23.01.2021 10:12:06 18,4 C 47,0%
23.01.2021 10:05:03 18,7 C 47,0%
23.01.2021 09:58:01 18,4 C 48,0%
23.01.2021 09:50:58 18,1 C 48,0%
23.01.2021 09:43:56 18,4 C 47,0%
23.01.2021 09:36:54 18,6 C 47,0%
23.01.2021 09:29:53 18,1 C 48,0%
23.01.2021 09:22:52 18,1 C 48,0%
23.01.2021 09:15:48 18,3 C 47,0%
23.01.2021 09:08:45 17,9 C 48,0%
23.01.2021 09:01:45 18,1 C 48,0%
23.01.2021 08:54:42 18,3 C 47,0%
23.01.2021 08:47:39 17,9 C 48,0%
23.01.2021 08:40:36 18,0 C 47,0%
23.01.2021 08:33:36 18,2 C 46,0%
23.01.2021 08:26:34 18,0 C 47,0%
23.01.2021 08:19:32 17,8 C 46,0%
23.01.2021 08:12:29 18,1 C 46,0%
23.01.2021 08:05:26 18,1 C 46,0%
23.01.2021 07:58:23 17,8 C 46,0%
23.01.2021 07:51:23 18,1 C 46,0%
23.01.2021 07:44:21 18,2 C 46,0%
23.01.2021 07:37:18 17,7 C 46,0%
23.01.2021 07:30:18 18,0 C 46,0%
23.01.2021 07:23:16 18,3 C 46,0%
23.01.2021 07:16:15 17,8 C 47,0%
23.01.2021 07:09:14 17,8 C 46,0%
23.01.2021 07:02:13 18,1 C 46,0%
23.01.2021 06:55:10 17,8 C 47,0%
23.01.2021 06:48:09 17,8 C 46,0%
23.01.2021 06:41:08 18,1 C 46,0%
23.01.2021 06:34:07 17,8 C 47,0%
23.01.2021 06:27:06 17,8 C 46,0%
23.01.2021 06:20:02 18,1 C 46,0%
23.01.2021 06:13:00 17,8 C 47,0%
23.01.2021 06:05:59 17,8 C 47,0%
23.01.2021 05:58:57 18,0 C 46,0%
23.01.2021 05:51:56 17,7 C 47,0%
23.01.2021 05:44:54 17,9 C 46,0%
23.01.2021 05:37:53 18,1 C 46,0%
23.01.2021 05:30:51 17,7 C 47,0%
23.01.2021 05:23:48 18,0 C 46,0%
23.01.2021 05:16:45 18,1 C 46,0%
23.01.2021 05:09:43 17,7 C 47,0%
23.01.2021 05:02:41 17,9 C 47,0%
23.01.2021 04:55:39 18,1 C 46,0%
23.01.2021 04:48:37 17,6 C 47,0%
23.01.2021 04:41:36 17,9 C 46,0%
23.01.2021 04:34:34 18,1 C 46,0%
23.01.2021 04:27:32 17,8 C 47,0%
23.01.2021 04:20:28 18,0 C 46,0%
23.01.2021 04:13:26 18,3 C 46,0%
23.01.2021 04:06:25 17,8 C 47,0%
23.01.2021 03:59:22 18,0 C 47,0%
23.01.2021 03:52:20 18,2 C 47,0%
23.01.2021 03:45:19 17,8 C 47,0%
23.01.2021 03:38:19 17,9 C 47,0%
23.01.2021 03:31:17 18,1 C 47,0%
23.01.2021 03:24:15 17,7 C 47,0%
23.01.2021 03:17:14 17,8 C 47,0%
23.01.2021 03:10:13 17,9 C 47,0%
23.01.2021 03:03:11 17,6 C 48,0%
23.01.2021 02:56:07 17,8 C 47,0%
23.01.2021 02:49:07 18,0 C 47,0%
23.01.2021 02:42:06 17,5 C 47,0%
23.01.2021 02:35:04 17,8 C 47,0%
23.01.2021 02:28:03 18,1 C 47,0%
23.01.2021 02:20:59 17,6 C 47,0%
23.01.2021 02:13:57 17,8 C 47,0%
23.01.2021 02:06:54 18,1 C 47,0%
23.01.2021 01:59:51 17,7 C 48,0%
23.01.2021 01:52:49 17,9 C 47,0%
23.01.2021 01:45:48 18,2 C 47,0%
23.01.2021 01:38:46 17,8 C 48,0%
23.01.2021 01:31:45 17,9 C 48,0%
23.01.2021 01:24:42 18,1 C 47,0%
23.01.2021 01:17:41 17,8 C 48,0%
23.01.2021 01:10:40 17,9 C 48,0%
23.01.2021 01:03:36 18,1 C 47,0%
23.01.2021 00:56:34 17,8 C 48,0%
23.01.2021 00:49:33 17,9 C 48,0%
23.01.2021 00:42:31 18,2 C 48,0%
23.01.2021 00:35:29 17,9 C 48,0%
23.01.2021 00:28:28 17,8 C 48,0%
23.01.2021 00:21:25 18,1 C 48,0%
23.01.2021 00:14:23 18,2 C 48,0%
23.01.2021 00:07:20 17,7 C 48,0%
23.01.2021 00:00:18 18,0 C 48,0%